• In Czech Republic
  • List of Countries
  • For 7 days
  • Water Temperature
  • Satellite Maps
  • Weather Map
  • Weather Widgets
  • user-avatar
    Login

    Hourly Weather Apizaco

    Today, 24 November, Friday

    Time Temperature Precipitation Wind Pressure Humidity
    00:00 +8°C° 0 mm 1 mps 568 mmHg 82%
    01:00 +7°C° 0 mm 1 mps 567 mmHg 82%
    02:00 +7°C° 0 mm 1 mps 567 mmHg 82%
    03:00 +7°C° 0 mm 1 mps 567 mmHg 80%
    04:00 +6°C° 0 mm 1 mps 567 mmHg 79%
    05:00 +6°C° 0 mm 1 mps 567 mmHg 77%
    06:00 +8°C° 0 mm 1 mps 568 mmHg 68%
    07:00 +10°C° 0 mm 1 mps 569 mmHg 59%
    08:00 +12°C° 0 mm 1 mps 570 mmHg 50%
    09:00 +14°C° 0 mm 1 mps 570 mmHg 43%
    10:00 +15°C° 0 mm 2 mps 571 mmHg 36%
    11:00 +17°C° 0 mm 2 mps 572 mmHg 29%
    12:00 +17°C° 0 mm 2 mps 571 mmHg 29%
    13:00 +18°C° 0 mm 2 mps 571 mmHg 29%
    14:00 +18°C° 0 mm 3 mps 571 mmHg 29%
    15:00 +17°C° 0 mm 2 mps 570 mmHg 38%
    16:00 +15°C° 0 mm 2 mps 569 mmHg 47%
    17:00 +13°C° 0 mm 1 mps 568 mmHg 55%
    18:00 +12°C° 0 mm 1 mps 568 mmHg 60%
    19:00 +11°C° 0 mm 1 mps 568 mmHg 65%
    20:00 +11°C° 0 mm 1 mps 569 mmHg 70%
    21:00 +10°C° 0 mm 1 mps 568 mmHg 71%
    22:00 +10°C° 0 mm 1 mps 568 mmHg 72%
    23:00 +9°C° 0 mm 1 mps 568 mmHg 73%

    Tomorrow, 25 November, Saturday

    Time Temperature Precipitation Wind Pressure Humidity
    00:00 +9°C° 0 mm 1 mps 568 mmHg 72%
    01:00 +9°C° 0 mm 1 mps 567 mmHg 72%
    02:00 +8°C° 0 mm 1 mps 567 mmHg 71%
    03:00 +8°C° 0 mm 1 mps 567 mmHg 69%
    04:00 +8°C° 0 mm 1 mps 567 mmHg 67%
    05:00 +8°C° 0 mm 1 mps 567 mmHg 65%
    06:00 +10°C° 0 mm 1 mps 568 mmHg 57%
    07:00 +12°C° 0 mm 1 mps 570 mmHg 49%
    08:00 +14°C° 0 mm 1 mps 571 mmHg 41%
    09:00 +16°C° 0 mm 1 mps 572 mmHg 35%
    10:00 +17°C° 0 mm 2 mps 572 mmHg 30%
    11:00 +19°C° 0 mm 2 mps 573 mmHg 24%
    12:00 +20°C° 0 mm 2 mps 573 mmHg 24%
    13:00 +20°C° 0 mm 2 mps 572 mmHg 25%
    14:00 +20°C° 0 mm 2 mps 572 mmHg 25%
    15:00 +18°C° 0 mm 2 mps 571 mmHg 34%
    16:00 +16°C° 0 mm 2 mps 570 mmHg 42%
    17:00 +14°C° 0 mm 2 mps 570 mmHg 51%
    18:00 +13°C° 0 mm 2 mps 570 mmHg 57%
    19:00 +12°C° 0 mm 1 mps 570 mmHg 62%
    20:00 +12°C° 0 mm 1 mps 570 mmHg 68%
    21:00 +11°C° 0 mm 1 mps 570 mmHg 68%
    22:00 +11°C° 0 mm 1 mps 570 mmHg 67%
    23:00 +10°C° 0 mm 1 mps 570 mmHg 67%

    Day after tomorrow, 26 November, Sunday

    Time Temperature Precipitation Wind Pressure Humidity
    00:00 +10°C° 0 mm 1 mps 570 mmHg 64%
    01:00 +8°C° 0 mm 2 mps 569 mmHg 62%
    02:00 +8°C° 0 mm 2 mps 569 mmHg 59%
    03:00 +7°C° 0 mm 2 mps 569 mmHg 56%
    04:00 +7°C° 0 mm 2 mps 569 mmHg 53%
    05:00 +7°C° 0 mm 2 mps 569 mmHg 50%
    06:00 +8°C° 0 mm 3 mps 570 mmHg 44%
    07:00 +10°C° 0 mm 3 mps 572 mmHg 39%
    08:00 +12°C° 0 mm 3 mps 573 mmHg 34%
    09:00 +13°C° 0 mm 4 mps 574 mmHg 32%
    10:00 +15°C° 0 mm 4 mps 574 mmHg 30%
    11:00 +16°C° 0 mm 5 mps 575 mmHg 28%
    12:00 +17°C° 0 mm 4 mps 574 mmHg 29%
    13:00 +18°C° 0 mm 4 mps 573 mmHg 29%
    14:00 +18°C° 0 mm 4 mps 573 mmHg 30%
    15:00 +16°C° 0 mm 3 mps 572 mmHg 38%
    16:00 +13°C° 0 mm 3 mps 571 mmHg 46%
    17:00 +11°C° 0 mm 3 mps 570 mmHg 54%
    18:00 +10°C° 0 mm 3 mps 570 mmHg 62%
    19:00 +8°C° 0 mm 3 mps 570 mmHg 69%
    20:00 +7°C° 0 mm 2 mps 570 mmHg 77%
    21:00 +7°C° 0 mm 2 mps 570 mmHg 77%
    22:00 +7°C° 0 mm 2 mps 570 mmHg 77%
    23:00 +6°C° 0 mm 2 mps 570 mmHg 77%

    27 November, Monday

    Time Temperature Precipitation Wind Pressure Humidity
    00:00 +6°C° 0 mm 2 mps 569 mmHg 77%
    01:00 +6°C° 0 mm 2 mps 569 mmHg 77%
    02:00 +5°C° 0 mm 2 mps 568 mmHg 78%
    03:00 +5°C° 0 mm 2 mps 568 mmHg 78%
    04:00 +5°C° 0 mm 2 mps 568 mmHg 79%
    05:00 +5°C° 0 mm 2 mps 568 mmHg 80%
    06:00 +7°C° 0 mm 2 mps 569 mmHg 73%
    07:00 +8°C° 0 mm 2 mps 571 mmHg 67%
    08:00 +10°C° 0 mm 2 mps 572 mmHg 60%
    09:00 +13°C° 0 mm 2 mps 572 mmHg 53%
    10:00 +15°C° 0 mm 2 mps 573 mmHg 46%
    11:00 +17°C° 0 mm 2 mps 573 mmHg 39%
    12:00 +17°C° 0 mm 2 mps 572 mmHg 39%
    13:00 +18°C° 0 mm 2 mps 572 mmHg 38%
    14:00 +18°C° 0 mm 2 mps 571 mmHg 37%
    15:00 +17°C° 0 mm 2 mps 571 mmHg 45%
    16:00 +15°C° 0 mm 2 mps 570 mmHg 53%
    17:00 +13°C° 0 mm 2 mps 569 mmHg 61%
    18:00 +12°C° 0 mm 2 mps 569 mmHg 67%
    19:00 +12°C° 0 mm 1 mps 569 mmHg 72%
    20:00 +11°C° 0 mm 1 mps 569 mmHg 78%
    21:00 +10°C° 0 mm 1 mps 569 mmHg 80%
    22:00 +10°C° 0 mm 1 mps 569 mmHg 82%
    23:00 +9°C° 0 mm 1 mps 568 mmHg 84%

    28 November, Tuesday

    Time Temperature Precipitation Wind Pressure Humidity
    00:00 +9°C° 0 mm 1 mps 568 mmHg 83%
    01:00 +8°C° 0 mm 1 mps 567 mmHg 83%
    02:00 +8°C° 0 mm 1 mps 567 mmHg 82%
    03:00 +8°C° 0 mm 1 mps 567 mmHg 80%
    04:00 +7°C° 0 mm 1 mps 567 mmHg 79%
    05:00 +7°C° 0 mm 1 mps 567 mmHg 77%
    06:00 +9°C° 0 mm 1 mps 568 mmHg 66%
    07:00 +11°C° 0 mm 1 mps 569 mmHg 56%
    08:00 +13°C° 0 mm 1 mps 571 mmHg 45%
    09:00 +15°C° 0 mm 1 mps 571 mmHg 39%
    10:00 +17°C° 0 mm 2 mps 572 mmHg 32%
    11:00 +19°C° 0 mm 2 mps 572 mmHg 26%
    12:00 +19°C° 0 mm 2 mps 572 mmHg 27%
    13:00 +20°C° 0 mm 2 mps 571 mmHg 28%
    14:00 +20°C° 0 mm 2 mps 571 mmHg 29%
    15:00 +18°C° 0 mm 2 mps 570 mmHg 38%
    16:00 +16°C° 0 mm 1 mps 570 mmHg 47%
    17:00 +14°C° 0 mm 1 mps 569 mmHg 56%
    18:00 +13°C° 0 mm 1 mps 569 mmHg 61%
    19:00 +12°C° 0 mm 0 mps 569 mmHg 66%
    20:00 +11°C° 0 mm 0 mps 569 mmHg 72%
    21:00 +10°C° 0 mm 0 mps 569 mmHg 72%
    22:00 +10°C° 0 mm 0 mps 569 mmHg 72%
    23:00 +10°C° 0 mm 1 mps 569 mmHg 73%

    29 November, Wednesday

    Time Temperature Precipitation Wind Pressure Humidity
    00:00 +10°C° 0 mm 1 mps 568 mmHg 73%
    01:00 +10°C° 0 mm 1 mps 568 mmHg 72%
    02:00 +9°C° 0 mm 1 mps 568 mmHg 72%
    03:00 +9°C° 0 mm 1 mps 568 mmHg 73%
    04:00 +9°C° 0 mm 1 mps 568 mmHg 74%
    05:00 +8°C° 0 mm 1 mps 568 mmHg 74%
    06:00 +10°C° 0 mm 1 mps 569 mmHg 68%
    07:00 +12°C° 0 mm 2 mps 571 mmHg 62%
    08:00 +14°C° 0 mm 2 mps 572 mmHg 55%
    09:00 +15°C° 0 mm 2 mps 573 mmHg 47%
    10:00 +17°C° 0 mm 2 mps 573 mmHg 39%
    11:00 +19°C° 0 mm 2 mps 574 mmHg 31%
    12:00 +19°C° 0 mm 3 mps 573 mmHg 33%
    13:00 +19°C° 0 mm 3 mps 573 mmHg 34%
    14:00 +19°C° 0 mm 3 mps 573 mmHg 36%
    15:00 +17°C° 0 mm 3 mps 572 mmHg 46%
    16:00 +14°C° 0 mm 3 mps 571 mmHg 56%
    17:00 +14°C° 0 mm 2 mps 571 mmHg 66%
    18:00 +13°C° 0 mm 2 mps 571 mmHg 71%
    19:00 +12°C° 0 mm 2 mps 571 mmHg 75%
    20:00 +10°C° 0 mm 2 mps 571 mmHg 80%
    21:00 +9°C° 0 mm 2 mps 571 mmHg 82%
    22:00 +9°C° 0 mm 2 mps 570 mmHg 84%
    23:00 +8°C° 0 mm 2 mps 570 mmHg 85%
    Show more